EN

Hourly Weather Sehnde

Today, 16 January, Saturday

Time Temperature Precipitation Wind Pressure Humidity
00:00 -2°C° 0 mm 1 mps 765 mmHg 86%
01:00 -3°C° 0 mm 2 mps 764 mmHg 83%
02:00 -3°C° 0 mm 2 mps 764 mmHg 82%
03:00 -3°C° 0 mm 2 mps 764 mmHg 81%
04:00 -3°C° 0 mm 2 mps 764 mmHg 80%
05:00 -3°C° 0 mm 2 mps 764 mmHg 80%
06:00 -3°C° 0 mm 2 mps 763 mmHg 81%
07:00 -3°C° 0 mm 2 mps 763 mmHg 81%
08:00 -3°C° 0 mm 2 mps 763 mmHg 80%
09:00 -3°C° 0 mm 2 mps 763 mmHg 79%
10:00 -2°C° 0 mm 2 mps 762 mmHg 78%
11:00 -2°C° 0 mm 2 mps 762 mmHg 75%
12:00 -1°C° 0 mm 2 mps 762 mmHg 72%
13:00 +1°C° 0 mm 2 mps 761 mmHg 71%
14:00 -1°C° 0 mm 2 mps 761 mmHg 73%
15:00 -1°C° 0 mm 2 mps 760 mmHg 76%
16:00 -1°C° 0 mm 2 mps 760 mmHg 79%
17:00 -1°C° 0 mm 2 mps 760 mmHg 82%
18:00 0°C° 0 mm 1 mps 759 mmHg 85%
19:00 0°C° 0 mm 1 mps 759 mmHg 89%
20:00 0°C° 0 mm 1 mps 759 mmHg 89%
21:00 0°C° 0 mm 1 mps 759 mmHg 88%
22:00 0°C° 0 mm 1 mps 759 mmHg 88%
23:00 -2°C° 0 mm 2 mps 758 mmHg 86%

Tomorrow, 17 January, Sunday

Time Temperature Precipitation Wind Pressure Humidity
00:00 -2°C° 0 mm 2 mps 758 mmHg 84%
01:00 -2°C° 0 mm 2 mps 757 mmHg 82%
02:00 -2°C° 0 mm 2 mps 757 mmHg 80%
03:00 -2°C° 0 mm 2 mps 756 mmHg 77%
04:00 -3°C° 0 mm 2 mps 756 mmHg 75%
05:00 -2°C° 0 mm 2 mps 756 mmHg 75%
06:00 -2°C° 0 mm 2 mps 756 mmHg 75%
07:00 -2°C° 0 mm 2 mps 756 mmHg 75%
08:00 -2°C° 0 mm 2 mps 756 mmHg 75%
09:00 -2°C° 0 mm 2 mps 756 mmHg 75%
10:00 -2°C° 0 mm 2 mps 756 mmHg 75%
11:00 -1°C° 0 mm 2 mps 756 mmHg 75%
12:00 -1°C° 0 mm 2 mps 757 mmHg 75%
13:00 -1°C° 0 mm 2 mps 757 mmHg 75%
14:00 -1°C° 0 mm 2 mps 757 mmHg 79%
15:00 +1°C° 0 mm 1 mps 757 mmHg 82%
16:00 +1°C° 0 mm 1 mps 757 mmHg 85%
17:00 +1°C° 0 mm 1 mps 757 mmHg 88%
18:00 -2°C° 0 mm 2 mps 758 mmHg 90%
19:00 -2°C° 0 mm 2 mps 758 mmHg 93%
20:00 -1°C° 0.1 mm 2 mps 758 mmHg 94%
21:00 -1°C° 0.1 mm 2 mps 758 mmHg 95%
22:00 +1°C° 0.1 mm 1 mps 758 mmHg 95%
23:00 +1°C° 0.1 mm 2 mps 758 mmHg 96%

Day after tomorrow, 18 January, Monday

Time Temperature Precipitation Wind Pressure Humidity
00:00 +1°C° 0.1 mm 2 mps 758 mmHg 96%
01:00 +1°C° 0.1 mm 3 mps 759 mmHg 96%
02:00 +1°C° 0.1 mm 3 mps 758 mmHg 96%
03:00 +1°C° 0.1 mm 3 mps 758 mmHg 96%
04:00 0°C° 0.1 mm 4 mps 758 mmHg 96%
05:00 -1°C° 0 mm 4 mps 758 mmHg 96%
06:00 -1°C° 0 mm 4 mps 759 mmHg 95%
07:00 -1°C° 0 mm 4 mps 759 mmHg 95%
08:00 -1°C° 0 mm 4 mps 759 mmHg 94%
09:00 0°C° 0 mm 4 mps 759 mmHg 92%
10:00 0°C° 0 mm 5 mps 759 mmHg 91%
11:00 0°C° 0 mm 5 mps 759 mmHg 91%
12:00 +1°C° 0 mm 5 mps 758 mmHg 90%
13:00 +1°C° 0 mm 6 mps 758 mmHg 90%
14:00 +1°C° 0 mm 6 mps 758 mmHg 90%
15:00 +1°C° 0 mm 6 mps 758 mmHg 89%
16:00 +1°C° 0 mm 6 mps 757 mmHg 89%
17:00 +1°C° 0.1 mm 6 mps 757 mmHg 89%
18:00 +1°C° 0.1 mm 6 mps 757 mmHg 88%
19:00 +1°C° 0.1 mm 6 mps 757 mmHg 88%
20:00 +1°C° 0.1 mm 6 mps 757 mmHg 90%
21:00 +1°C° 0.1 mm 6 mps 757 mmHg 92%
22:00 +1°C° 0.1 mm 6 mps 757 mmHg 94%
23:00 +1°C° 0.1 mm 6 mps 756 mmHg 94%

19 January, Tuesday

Time Temperature Precipitation Wind Pressure Humidity
00:00 +1°C° 0.1 mm 6 mps 756 mmHg 94%
01:00 +1°C° 0.1 mm 6 mps 755 mmHg 94%
02:00 +1°C° 0.1 mm 6 mps 755 mmHg 93%
03:00 -1°C° 0.1 mm 6 mps 754 mmHg 91%
04:00 -1°C° 0.1 mm 6 mps 753 mmHg 89%
05:00 -1°C° 0.4 mm 6 mps 752 mmHg 91%
06:00 -1°C° 0.4 mm 7 mps 751 mmHg 93%
07:00 -1°C° 0.4 mm 7 mps 751 mmHg 96%
08:00 -1°C° 1 mm 7 mps 749 mmHg 94%
09:00 0°C° 1 mm 7 mps 748 mmHg 93%
10:00 0°C° 1 mm 7 mps 747 mmHg 92%
11:00 +2°C° 1.8 mm 7 mps 747 mmHg 91%
12:00 +2°C° 1.8 mm 8 mps 746 mmHg 90%
13:00 +5°C° 1.8 mm 8 mps 745 mmHg 89%
14:00 +5°C° 0.8 mm 9 mps 745 mmHg 87%
15:00 +5°C° 0.8 mm 9 mps 745 mmHg 84%
16:00 +6°C° 0.8 mm 10 mps 745 mmHg 82%
17:00 +6°C° 0.1 mm 10 mps 745 mmHg 81%
18:00 +6°C° 0.1 mm 9 mps 745 mmHg 80%
19:00 +6°C° 0.1 mm 9 mps 745 mmHg 80%
20:00 +6°C° 0 mm 9 mps 745 mmHg 80%
21:00 +6°C° 0 mm 8 mps 746 mmHg 81%
22:00 +5°C° 0 mm 8 mps 746 mmHg 81%
23:00 +5°C° 0 mm 8 mps 746 mmHg 80%

20 January, Wednesday

Time Temperature Precipitation Wind Pressure Humidity
00:00 +5°C° 0 mm 8 mps 746 mmHg 78%
01:00 +5°C° 0 mm 7 mps 746 mmHg 77%
02:00 +5°C° 0 mm 7 mps 745 mmHg 76%
03:00 +5°C° 0 mm 7 mps 745 mmHg 75%
04:00 +5°C° 0 mm 7 mps 744 mmHg 75%
05:00 +5°C° 0 mm 7 mps 744 mmHg 74%
06:00 +5°C° 0 mm 7 mps 744 mmHg 74%
07:00 +5°C° 0 mm 7 mps 744 mmHg 74%
08:00 +5°C° 0 mm 8 mps 744 mmHg 73%
09:00 +5°C° 0 mm 8 mps 744 mmHg 73%
10:00 +5°C° 0 mm 8 mps 744 mmHg 73%
11:00 +6°C° 0 mm 8 mps 743 mmHg 69%
12:00 +6°C° 0 mm 8 mps 743 mmHg 64%
13:00 +8°C° 0 mm 7 mps 743 mmHg 60%
14:00 +8°C° 0 mm 7 mps 743 mmHg 62%
15:00 +8°C° 0 mm 7 mps 742 mmHg 64%
16:00 +7°C° 0 mm 6 mps 742 mmHg 65%
17:00 +6°C° 0 mm 7 mps 742 mmHg 68%
18:00 +6°C° 0 mm 7 mps 742 mmHg 71%
19:00 +5°C° 0 mm 7 mps 742 mmHg 75%
20:00 +5°C° 0 mm 7 mps 741 mmHg 74%
21:00 +5°C° 0 mm 7 mps 741 mmHg 73%
22:00 +5°C° 0 mm 7 mps 741 mmHg 73%
23:00 +5°C° 0 mm 7 mps 741 mmHg 72%

21 January, Thursday

Time Temperature Precipitation Wind Pressure Humidity
00:00 +6°C° 0 mm 7 mps 740 mmHg 71%
01:00 +6°C° 0 mm 7 mps 740 mmHg 70%
02:00 +6°C° 0 mm 8 mps 740 mmHg 69%
03:00 +6°C° 0 mm 9 mps 739 mmHg 68%
04:00 +7°C° 0 mm 10 mps 739 mmHg 66%
05:00 +7°C° 0 mm 10 mps 738 mmHg 66%
06:00 +7°C° 0 mm 9 mps 738 mmHg 67%
07:00 +7°C° 0 mm 9 mps 737 mmHg 67%
08:00 +6°C° 0 mm 9 mps 737 mmHg 69%
09:00 +6°C° 0 mm 9 mps 738 mmHg 72%
10:00 +6°C° 0 mm 9 mps 738 mmHg 74%
11:00 +6°C° 0.1 mm 9 mps 738 mmHg 68%
12:00 +6°C° 0.1 mm 9 mps 739 mmHg 63%
13:00 +6°C° 0.1 mm 9 mps 739 mmHg 57%
14:00 +6°C° 0 mm 8 mps 739 mmHg 58%
15:00 +5°C° 0 mm 8 mps 739 mmHg 59%
16:00 +5°C° 0 mm 8 mps 739 mmHg 61%
17:00 +4°C° 0 mm 8 mps 739 mmHg 64%
18:00 +4°C° 0 mm 8 mps 738 mmHg 67%
19:00 +3°C° 0 mm 9 mps 738 mmHg 71%
20:00 +4°C° 0 mm 8 mps 738 mmHg 71%
21:00 +4°C° 0 mm 8 mps 738 mmHg 72%
22:00 +4°C° 0 mm 8 mps 738 mmHg 73%
23:00 +4°C° 0 mm 7 mps 739 mmHg 74%
Show more

We Need Your Consent

Meteoprog and our Service Providers may store and access personal data such as cookies, device identifiers or other similar technologies on your device and process such data to personalise content and ads, as well as provide social media features and to analyse the traffic.

  • Store and/or access information on your device

    Cookies, device identifiers or other information can be stored or accessed on your device for the purposes indicated above.

  • Personalised ads and content, ad and content measurement, audience insights, and products development

    Ads and content can be personalised based on a profile. More data can be added to better personalise ads and content. Ad and content performance can be measured. Insights about the audience who saw the ads and content can be derived. Such data can be used to develop or improve user’s experience, systems and software.

By clicking ‘I Agree’ you will allow the use of indicated cookies, device identifiers, web beacons or other similar technologies. Your settings can be changed in the browser on your device.

For certain purposes, legitimate interests may be relied on, rather than consent. You can read more about this in our Privacy and Cookie Policy.